Visibility
15.0 15.0 15.0 15.0 15.0 15.0 15.0 15.0 15.0 15.0 15.0 15.0 15.0 15.0 15.0 15.0 15.0 15.0 15.0 15.0 15.0 15.0
15.0 15.0 15.0 15.0 15.0 15.0 14.3 13.9 15.0 15.0 15.0 15.0 15.0 15.0 15.0 15.0 15.0 15.0 15.0 15.0 15.0 15.0
15.0 15.0 15.0 15.0 15.0 15.0 15.0 8.0 10.5 8.0 13.9 15.0 15.0 15.0 15.0 15.0 15.0 15.0 15.0 15.0 15.0 15.0
15.0 15.0 15.0 15.0 15.0 15.0 15.0 13.2 13.1 14.9 10.9 14.8 15.0 15.0 15.0 15.0 15.0 15.0 15.0 15.0 15.0 15.0
15.0 15.0 15.0 15.0 15.0 15.0 15.0 8.9 15.0 15.0 15.0 15.0 15.0 15.0 15.0 15.0 15.0 15.0 15.0 15.0 15.0 15.0
15.0 15.0 14.0 12.7 14.9 15.0 15.0 15.0 15.0 15.0 15.0 15.0 15.0 15.0 15.0 15.0 15.0 15.0 15.0 15.0 15.0 15.0
15.0 15.0 15.0 8.7 2.4 3.4 11.8 15.0 15.0 15.0 15.0 15.0 15.0 15.0 15.0 15.0 15.0 15.0 15.0 15.0 15.0 15.0
15.0 14.5 12.2 15.0 15.0 15.0 14.3 9.5 9.5 5.9 9.2 14.3 15.0 15.0 15.0 15.0 15.0 15.0 15.0 15.0 15.0 15.0
3.2 8.0 10.3 14.8 4.6 4.0 3.0 2.0 0.6 0.4 3.3 15.0 15.0 15.0 13.0 0.3 4.9 14.9 7.8 12.7 15.0 15.0
0.2 0.8 0.2 0.1 0.1 0.2 0.2 0.2 0.2 0.4 3.0 2.3 0.4 1.3 15.0 9.7 5.9 6.6 15.0 15.0 15.0 15.0
0.2 0.2 0.1 0.1 0.2 0.2 0.2 0.3 0.2 0.1 0.1 0.2 0.5 0.8 3.4 8.9 13.3 10.1 15.0 15.0 15.0 15.0
0.2 0.2 0.2 0.2 0.2 0.1 0.1 0.1 0.1 0.2 0.1 0.2 3.7 15.0 15.0 15.0 15.0 15.0 15.0 15.0 15.0 15.0
0.1 0.1 0.1 0.1 0.1 0.2 0.3 0.2 0.2 0.2 0.3 0.3 15.0 15.0 15.0 14.5 4.5 5.3 15.0 15.0 15.0 15.0
0.1 0.1 0.2 0.4 0.3 0.2 0.1 0.3 0.4 5.6 15.0 15.0 15.0 15.0 15.0 14.1 12.3 8.2 15.0 2.4 15.0 15.0